TimeCDT,TemperatureF,Dew PointF,Humidity,Sea Level PressureIn,VisibilityMPH,Wind Direction,Wind SpeedMPH,Gust SpeedMPH,PrecipitationIn,Events,Conditions,WindDirDegrees,DateUTC
12:15 AM,32.7,32.7,100,29.64,10.0,NW,3.5,-,N/A,Snow,Light Snow,320,2013-10-21 05:15:00
12:35 AM,32.9,32.9,100,29.64,7.0,Calm,Calm,-,N/A,,Overcast,0,2013-10-21 05:35:00
12:55 AM,32.9,32.9,100,29.65,7.0,WNW,4.6,-,N/A,,Overcast,290,2013-10-21 05:55:00
1:15 AM,32.9,32.9,100,29.65,10.0,WNW,5.8,-,0.01,,Overcast,300,2013-10-21 06:15:00
1:35 AM,32.9,32.9,100,29.65,10.0,NW,4.6,-,0.01,,Overcast,310,2013-10-21 06:35:00
1:55 AM,32.9,32.9,100,29.67,10.0,WNW,6.9,-,0.01,,Overcast,290,2013-10-21 06:55:00
2:15 AM,32.9,32.9,100,29.67,10.0,WNW,4.6,-,N/A,,Overcast,290,2013-10-21 07:15:00
2:35 AM,33.1,33.1,100,29.68,7.0,West,6.9,-,N/A,,Overcast,280,2013-10-21 07:35:00
2:55 AM,33.1,33.1,100,29.68,7.0,West,6.9,-,N/A,,Overcast,280,2013-10-21 07:55:00
3:15 AM,33.3,33.3,100,29.69,4.0,West,9.2,-,0.01,Snow,Light Snow,280,2013-10-21 08:15:00
3:35 AM,33.4,33.4,100,29.69,4.0,West,6.9,-,0.03,Snow,Light Snow,270,2013-10-21 08:35:00
3:55 AM,33.3,33.3,100,29.69,5.0,West,8.1,-,0.04,Snow,Light Snow,280,2013-10-21 08:55:00
4:15 AM,33.3,33.3,100,29.69,7.0,West,6.9,-,0.01,Snow,Light Snow,280,2013-10-21 09:15:00
4:35 AM,33.6,33.3,99,29.70,10.0,West,9.2,16.1,0.02,,Overcast,280,2013-10-21 09:35:00
4:55 AM,33.8,33.1,97,29.70,10.0,WNW,10.4,17.3,0.03,,Overcast,290,2013-10-21 09:55:00
5:15 AM,33.4,33.3,99,29.70,4.0,West,6.9,-,N/A,,Overcast,280,2013-10-21 10:15:00
5:35 AM,33.3,33.3,100,29.71,4.0,West,10.4,-,0.01,Snow,Light Snow,280,2013-10-21 10:35:00
5:55 AM,32.9,32.9,100,29.71,4.0,WNW,10.4,-,0.02,Snow,Light Snow,290,2013-10-21 10:55:00
6:15 AM,32.9,32.9,100,29.72,3.0,West,9.2,-,N/A,Snow,Light Snow,280,2013-10-21 11:15:00
6:35 AM,32.5,32.5,100,29.72,2.5,West,9.2,-,N/A,Snow,Light Snow,270,2013-10-21 11:35:00
6:55 AM,32.4,32.2,99,29.72,3.0,West,9.2,-,N/A,Snow,Light Snow,280,2013-10-21 11:55:00
7:15 AM,32.2,32.0,99,29.72,4.0,West,12.7,16.1,N/A,Snow,Light Snow,280,2013-10-21 12:15:00
7:35 AM,32.0,31.8,99,29.73,1.8,West,10.4,19.6,N/A,Snow,Light Snow,280,2013-10-21 12:35:00
7:55 AM,31.8,31.3,98,29.74,0.8,West,12.7,19.6,N/A,Snow,Light Snow,270,2013-10-21 12:55:00
8:15 AM,31.6,30.7,96,29.74,10.0,WNW,10.4,-,N/A,,Overcast,290,2013-10-21 13:15:00
8:35 AM,31.5,30.7,97,29.75,2.0,WNW,9.2,-,N/A,Snow,Light Snow,300,2013-10-21 13:35:00
8:55 AM,31.1,28.4,90,29.75,10.0,WNW,9.2,18.4,N/A,,Overcast,290,2013-10-21 13:55:00
9:15 AM,31.8,27.7,85,29.75,10.0,West,12.7,19.6,N/A,,Mostly Cloudy,280,2013-10-21 14:15:00
9:35 AM,31.1,25.5,80,29.75,10.0,WNW,15.0,19.6,N/A,,Mostly Cloudy,290,2013-10-21 14:35:00
9:55 AM,30.9,25.7,81,29.75,10.0,West,11.5,19.6,N/A,,Overcast,280,2013-10-21 14:55:00
10:15 AM,31.1,25.5,80,29.75,10.0,West,11.5,18.4,N/A,,Overcast,280,2013-10-21 15:15:00
10:35 AM,31.5,25.7,79,29.75,10.0,West,10.4,20.7,N/A,,Overcast,270,2013-10-21 15:35:00
10:55 AM,31.1,27.0,85,29.76,5.0,West,12.7,20.7,N/A,Snow,Light Snow,260,2013-10-21 15:55:00
11:15 AM,31.5,28.0,87,29.76,10.0,West,12.7,-,N/A,,Overcast,270,2013-10-21 16:15:00
11:35 AM,30.0,28.2,93,29.76,2.5,WNW,8.1,-,N/A,Snow,Light Snow,300,2013-10-21 16:35:00
11:55 AM,30.6,27.7,89,29.76,2.5,West,10.4,21.9,N/A,Snow,Light Snow,280,2013-10-21 16:55:00
12:15 PM,31.3,23.4,72,29.76,10.0,West,13.8,20.7,N/A,,Overcast,270,2013-10-21 17:15:00
12:35 PM,32.0,24.6,74,29.75,10.0,West,13.8,-,N/A,,Overcast,260,2013-10-21 17:35:00
12:55 PM,32.0,21.7,66,29.75,10.0,West,13.8,18.4,N/A,,Overcast,270,2013-10-21 17:55:00
1:15 PM,31.1,21.4,67,29.75,10.0,West,9.2,19.6,N/A,,Overcast,270,2013-10-21 18:15:00
1:35 PM,31.8,23.5,71,29.74,10.0,West,11.5,-,N/A,,Overcast,270,2013-10-21 18:35:00
1:55 PM,31.1,22.3,70,29.74,10.0,WNW,13.8,24.2,N/A,,Overcast,290,2013-10-21 18:55:00
2:15 PM,31.1,21.4,67,29.74,10.0,West,12.7,18.4,N/A,,Overcast,270,2013-10-21 19:15:00
2:35 PM,31.1,21.7,68,29.74,10.0,West,12.7,19.6,N/A,,Overcast,270,2013-10-21 19:35:00
2:55 PM,31.1,20.3,64,29.74,10.0,West,13.8,18.4,N/A,,Overcast,260,2013-10-21 19:55:00
3:15 PM,31.3,20.5,64,29.74,10.0,West,15.0,-,N/A,,Overcast,270,2013-10-21 20:15:00
3:35 PM,31.1,21.6,68,29.74,7.0,West,10.4,-,N/A,Snow,Light Snow,270,2013-10-21 20:35:00
3:55 PM,31.5,21.6,67,29.73,10.0,West,11.5,17.3,N/A,,Overcast,260,2013-10-21 20:55:00
4:15 PM,31.8,21.6,66,29.73,10.0,West,10.4,-,N/A,,Overcast,260,2013-10-21 21:15:00
4:35 PM,30.2,23.9,77,29.74,1.8,West,16.1,27.6,N/A,Snow,Light Snow,260,2013-10-21 21:35:00
4:55 PM,30.6,23.4,75,29.74,10.0,WSW,10.4,17.3,N/A,,Mostly Cloudy,250,2013-10-21 21:55:00
5:15 PM,30.7,22.8,72,29.74,10.0,WSW,9.2,-,N/A,,Mostly Cloudy,250,2013-10-21 22:15:00
5:35 PM,30.4,23.0,74,29.75,2.0,WNW,21.9,31.1,N/A,Snow,Light Snow,290,2013-10-21 22:35:00
5:55 PM,29.1,24.3,82,29.75,3.0,West,5.8,-,N/A,Snow,Light Snow,270,2013-10-21 22:55:00
6:15 PM,29.3,25.2,85,29.75,3.0,West,9.2,-,N/A,Snow,Light Snow,260,2013-10-21 23:15:00
6:35 PM,29.5,24.1,80,29.74,10.0,West,16.1,20.7,N/A,,Overcast,260,2013-10-21 23:35:00
6:55 PM,29.8,23.9,79,29.75,10.0,WSW,12.7,24.2,N/A,,Overcast,250,2013-10-21 23:55:00
7:15 PM,30.0,23.2,76,29.74,10.0,West,10.4,16.1,N/A,,Overcast,260,2013-10-22 00:15:00
7:35 PM,29.8,23.0,76,29.73,10.0,WSW,15.0,20.7,N/A,,Overcast,250,2013-10-22 00:35:00
7:55 PM,29.8,23.5,77,29.73,10.0,WSW,13.8,-,N/A,,Overcast,250,2013-10-22 00:55:00
8:15 PM,29.3,23.7,80,29.73,7.0,WSW,11.5,19.6,N/A,Snow,Light Snow,250,2013-10-22 01:15:00
8:35 PM,29.3,24.3,81,29.72,5.0,WSW,12.7,-,N/A,Snow,Light Snow,250,2013-10-22 01:35:00
8:55 PM,29.3,24.4,82,29.72,4.0,WSW,13.8,21.9,N/A,Snow,Light Snow,250,2013-10-22 01:55:00
9:15 PM,29.3,24.8,83,29.71,4.0,WSW,15.0,20.7,N/A,Snow,Light Snow,250,2013-10-22 02:15:00
9:35 PM,29.7,25.2,83,29.70,5.0,WSW,15.0,20.7,N/A,Snow,Light Snow,240,2013-10-22 02:35:00
9:55 PM,30.0,25.7,84,29.71,7.0,West,10.4,19.6,N/A,,Overcast,270,2013-10-22 02:55:00
10:15 PM,30.2,25.7,83,29.70,7.0,West,10.4,24.2,N/A,,Overcast,260,2013-10-22 03:15:00
10:35 PM,30.6,26.2,84,29.69,7.0,West,16.1,20.7,N/A,Snow,Light Snow,260,2013-10-22 03:35:00
10:55 PM,30.9,26.8,85,29.69,5.0,West,12.7,23.0,N/A,Snow,Light Snow,260,2013-10-22 03:55:00
11:15 PM,31.1,27.5,87,29.69,5.0,West,12.7,21.9,N/A,Snow,Light Snow,260,2013-10-22 04:15:00
11:35 PM,31.6,30.2,94,29.69,3.0,West,11.5,17.3,N/A,Snow,Light Snow,270,2013-10-22 04:35:00
11:55 PM,32.0,30.6,94,29.70,3.0,West,12.7,20.7,N/A,Snow,Light Snow,280,2013-10-22 04:55:00